Flag for Switzerland Weather past 2 weeks in Regensdorf, Zurich, Switzerland

Now
64 °F

Mild.


Feels Like: 64 °F
Forecast: 51 / 60 °F
Wind: 6 mph from Northwest

Location: Zurich-Kloten

Current Time: Jul 29, 2015 at 12:20:43 AM

Latest Report: Jul 28, 2015 at 10:00 PM


Visibility: N/A

Pressure: 29.89 "Hg

Humidity: 50%

Dew point: 46 °F

Location of RegensdorfLocation

Historic Weather in Regensdorf — Graph

°F

Regensdorf temperature yesterday

Maximum temperature yesterday: 74 °F (at 6:00 PM)
Minimum temperature yesterday: 63 °F (at 5:00 AM)
Average temperature yesterday: 66 °F

Past Weeks' High & Low Weather Summary

 TemperatureHumidityPressure
High95 °F (Jul 22, 3:00 PM)95% (Jul 19, 4:00 AM)30.16 "Hg (Jul 19, 4:00 AM)
Low53 °F (Jul 26, 6:00 AM)18% (Jul 16, 4:00 PM)29.65 "Hg (Jul 24, 7:00 PM)
Average73 °F60%29.95 "Hg
* Reported Jul 13 10:00 PM — Jul 28 10:00 PM, Regensdorf, Weather by CustomWeather, © 2015

Note: Actual official high and low records may vary slightly from our data, if they occured in-between our weather recording intervals... More about our weather records

Advertising

Regensdorf weather history for previous 24 hours

 ConditionsComfort  
Time TempWeatherWind HumidityBarometerVisibility
10:00 PM
Tue, Jul 28
64 °FMild.6 mph50%29.89 "HgN/A
9:00 PM67 °FMild.10 mph42%29.85 "HgN/A
8:00 PM68 °FOvercast.12 mph42%29.83 "Hg22 mi
7:00 PM70 °FMild.9 mph44%29.81 "HgN/A
6:00 PM74 °FMild.10 mph39%29.79 "HgN/A
5:00 PM72 °FPartly sunny.9 mph41%29.80 "Hg16 mi
4:00 PM71 °FMild.12 mph45%29.83 "HgN/A
3:00 PM69 °FMild.9 mph44%29.84 "HgN/A
2:00 PM69 °FPartly sunny.10 mph47%29.85 "Hg22 mi
1:00 PM67 °FMild.10 mph50%29.87 "HgN/A
12:00 PM65 °FMild.8 mph52%29.88 "HgN/A
11:00 AM64 °FOvercast.9 mph56%29.89 "Hg22 mi
10:00 AM64 °FMild.7 mph56%29.88 "HgN/A
9:00 AM64 °FMild.9 mph55%29.88 "HgN/A
8:00 AM64 °FOvercast.12 mph57%29.87 "Hg25 mi
7:00 AM64 °FMild.12 mph57%29.86 "HgN/A
6:00 AM64 °FMild.13 mph55%29.85 "HgN/A
5:00 AM63 °FOvercast.8 mph63%29.85 "Hg25 mi
4:00 AM64 °FMild.7 mph60%29.84 "HgN/A
3:00 AM64 °FMild.6 mph62%29.85 "HgN/A
2:00 AM64 °FOvercast.5 mph63%29.85 "Hg25 mi
1:00 AM64 °FMild.6 mph61%29.85 "HgN/A
12:00 AM66 °FMild.6 mph56%29.85 "HgN/A
Weather by CustomWeather, © 2015

See weather overviewHow to use our weather pages